[Iaude] MPEC J55: 2020 JV [a=2.27,e=0.64,i=3.3,H=21.5,PHA]

mpec at marsden.cfa.harvard.edu mpec at marsden.cfa.harvard.edu
Tue May 12 10:40:31 EDT 2020


M.P.E.C. 2020-J55                                  Issued 2020 May 12, 14:38 UT

     The Minor Planet Electronic Circulars contain information on unusual
         minor planets and routine data on comets.  They are published
    on behalf of Division F of the International Astronomical Union by the
          Minor Planet Center, Smithsonian Astrophysical Observatory,
                          Cambridge, MA 02138, U.S.A.

             Prepared using the Tamkin Foundation Computer Network

                              MPC at CFA.HARVARD.EDU
            URL https://www.minorplanetcenter.net/    ISSN 1523-6714

                                    2020 JV                                     


Observations:
     K20J00V* C2020 05 10.43060814 25 09.06 -42 01 34.1          17.59oVEJ055T08
     K20J00V  C2020 05 10.43798714 25 11.44 -42 00 48.5          18.21oVEJ055T08
     K20J00V  C2020 05 10.44121014 25 12.55 -42 00 30.4          18.07oVEJ055T08
     K20J00V  C2020 05 10.45226814 25 16.47 -41 59 23.2          17.84oVEJ055T08
     K20J00V #C2020 05 11.26997 14 30 05.47 -40 40 52.4          18.4 GVEJ055W88
     K20J00V #C2020 05 11.30083 14 30 14.97 -40 37 59.6          18.2 GVEJ055W88
     K20J00V 1C2020 05 11.35497 14 30 41.67 -40 32 56.3                VEJ055Q62
     K20J00V 1C2020 05 11.35573 14 30 41.90 -40 32 52.5                VEJ055Q62
     K20J00V 1C2020 05 11.35648 14 30 42.15 -40 32 48.7          18.2 GVEJ055Q62
     K20J00V KC2020 05 11.89552 14 33 26.00 -39 46 19.9          18.1 GVEJ055L80
     K20J00V KC2020 05 11.89828 14 33 26.73 -39 46 06.7          18.2 GVEJ055L80
     K20J00V KC2020 05 11.90104 14 33 27.52 -39 45 52.5          18.3 GVEJ055L80
     K20J00V KC2020 05 11.90379 14 33 28.23 -39 45 38.2          18.1 GVEJ055L80
     K20J00V KC2020 05 11.90628 14 33 28.90 -39 45 25.9          18.3 GVEJ055L80
     K20J00V KC2020 05 12.50535 14 36 20.06 -38 56 02.6          18.0 VqEJ055E23
     K20J00V KC2020 05 12.51924 14 36 23.42 -38 54 57.0          17.9 VqEJ055E23
     K20J00V KC2020 05 12.53081 14 36 26.15 -38 54 02.7                qEJ055E23

Observer details:
E23 Arcadia.  Observer A. Hidas.  0.35-m f/1.9 reflector + CCD.
L80 SpringBok Observatory, Tivoli.  Observers R. Reszelewski, M. Zolnowski, M. 
   Gedek.  Measurer R. Reszelewski.
Q62 iTelescope Observatory, Siding Spring.  Observer H. Sato.  0.51-m f/6.8 
   astrograph + CCD + f/4.5 focal reducer.
T08 ATLAS-MLO, Mauna Loa.  Observers L. Denneau, J. Tonry, A. Heinze, H. 
   Weiland, H. Flewelling.  Measurers L. Denneau, J. Tonry, A. Heinze, H. 
   Weiland, H. Flewelling, B. Stalder, A. Fitzsimmons, J. Robinson, N. Erasmus. 
    0.5-m reflector + CCD.
W88 Slooh.com Chile Observatory, La Dehesa.  Observer M. Suzuki.  0.43-m f/6.8 
   Corrected Dall-Kirkham + CCD.

Orbital elements:
2020 JV                                             PHA, Earth MOID = 0.0008 AU
Epoch 2020 May 31.0 TT = JDT 2459000.5                  Alexandersen
M  21.02052              (2000.0)            P               Q
n   0.28768722     Peri.  235.73426     -0.92768261     -0.36903231
a   2.2725965      Node   282.55248     +0.35882346     -0.83917385
e   0.6391700      Incl.    3.33282     +0.10320228     -0.39950269
P   3.43           H   21.5           G   0.15           U   8
Residuals in seconds of arc
200510 T08  0.8+  0.1-    200511 Q62  0.3+  0.3-    200511 L80  0.4+  0.4+
200510 T08  0.9-  1.0+    200511 Q62  0.2+  0.4-    200511 L80  0.5+  0.1+
200510 T08  0.9-  0.3-    200511 Q62  0.4+  0.5-    200512 E23  0.1-  0.2+
200510 T08  0.4+  0.1+    200511 L80  0.1-  0.6+    200512 E23  0.2-  0.2+
200511 W88  0.5-  0.3-    200511 L80  0.1-  0.2-    200512 E23  0.9-  0.2-
200511 W88  0.1-  0.2-    200511 L80  0.6+  0.1+

Ephemeris:
2020 JV                  a,e,i = 2.27, 0.64, 3                   q = 0.8200
Date    TT    R. A. (2000) Decl.     Delta      r    Elong.  Phase     V
2020 04 12    04 06 31.7 +00 16 08   0.1501  0.8959    41.7   131.9    23.0
...
2020 04 27    06 28 23.0 -49 23 32   0.05607 1.0019    83.7    93.1    18.6
...
2020 05 05    13 19 28.7 -54 16 26   0.07921 1.0689   138.2    39.0    17.7
...
2020 05 11    14 28 37.1 -41 05 45   0.1224  1.1221   155.0    22.4    18.3
2020 05 12    14 33 55.9 -39 37 17   0.1304  1.1311   156.6    20.7    18.4
2020 05 13    14 38 28.0 -38 17 41   0.1386  1.1402   158.1    19.3    18.5
...
2020 05 19    14 56 00.7 -32 32 01   0.1905  1.1955   163.3    14.0    19.1
...
2020 05 27    15 08 08.3 -28 09 48   0.2664  1.2705   163.1    13.4    19.9
...
2020 06 11    15 22 12.2 -24 10 43   0.4291  1.4126   153.6    18.6    21.4

M. P. C. Staff               (C) Copyright 2020 MPC           M.P.E.C. 2020-J55




More information about the Iaude mailing list